EXS22G LEMH-EGCC

Flight info

Callsign EXS22G
Flight time N/A
Altitude 34000
Route MEROS N853 LUMAS DCT SOFFY DCT MRM DCT MTL DCT ETREK/N0446F360 DCT MADOT DCT MOPEM DCT CACHI DCT AVLON DCT OKRIX DCT BRY DCT CLM DCT KOPOR DCT VESAN DCT RATUK DCT SOVAT L613 SANDY UN57 WELIN T420 ELVOS
Aircraft A321/M-SDE3FGHIRWY/LB1

Departure

Time 2026-04-30 20:56
Airport Menorca Airport (LEMH)

Arrival

Time N/A
Airport Manchester Airport (EGCC)
Time Latitude Longitude Altitude Speed Heading
2026-04-30 20:06 39.86528 4.22418 299 ft 0 kts 98°
2026-04-30 20:07 39.86528 4.22417 298 ft 0 kts 98°
2026-04-30 20:17 39.86528 4.22416 295 ft 0 kts 98°
2026-04-30 20:30 39.86528 4.22415 295 ft 0 kts 98°
2026-04-30 20:43 39.86531 4.22390 300 ft 4 kts 99°
2026-04-30 20:44 39.86549 4.22339 299 ft 4 kts 167°
2026-04-30 20:44 39.86567 4.22338 298 ft 0 kts 188°
2026-04-30 20:48 39.86547 4.22328 298 ft 8 kts 208°
2026-04-30 20:48 39.86538 4.22274 297 ft 5 kts 278°
2026-04-30 20:49 39.86544 4.22223 296 ft 9 kts 277°
2026-04-30 20:49 39.86509 4.22157 297 ft 9 kts 201°
2026-04-30 20:49 39.86454 4.22144 296 ft 7 kts 188°
2026-04-30 20:50 39.86318 4.22116 295 ft 13 kts 189°
2026-04-30 20:50 39.86199 4.22091 297 ft 21 kts 187°
2026-04-30 20:50 39.86026 4.22056 297 ft 29 kts 188°
2026-04-30 20:50 39.85834 4.22017 297 ft 27 kts 189°
2026-04-30 20:51 39.85654 4.21980 295 ft 27 kts 188°
2026-04-30 20:51 39.85300 4.21907 285 ft 22 kts 189°
2026-04-30 20:51 39.85185 4.21883 282 ft 13 kts 188°
2026-04-30 20:52 39.85132 4.21848 282 ft 6 kts 237°
2026-04-30 20:52 39.85131 4.21810 283 ft 2 kts 278°
2026-04-30 20:52 39.85132 4.21802 283 ft 0 kts 278°
2026-04-30 20:55 39.85138 4.21753 284 ft 13 kts 278°
2026-04-30 20:55 39.85170 4.21657 288 ft 10 kts 329°
2026-04-30 20:56 39.85460 4.21702 294 ft 68 kts
2026-04-30 20:56 39.86144 4.21842 300 ft 128 kts
2026-04-30 20:56 39.88286 4.22322 1125 ft 155 kts 11°
2026-04-30 20:57 39.89372 4.22644 1618 ft 167 kts 11°
2026-04-30 20:57 39.90547 4.22870 2101 ft 174 kts 12°
2026-04-30 20:57 39.91805 4.23112 2386 ft 193 kts 12°
2026-04-30 20:58 39.94746 4.23704 2687 ft 237 kts 11°
2026-04-30 20:58 39.96456 4.24058 3049 ft 256 kts 11°
2026-04-30 20:58 39.98238 4.24427 3762 ft 262 kts 11°
2026-04-30 20:58 40.00061 4.24805 4464 ft 269 kts 11°
2026-04-30 20:59 40.03832 4.25635 5854 ft 279 kts 11°
2026-04-30 20:59 40.05757 4.26092 6573 ft 283 kts 11°
2026-04-30 21:00 40.09660 4.27020 7955 ft 289 kts 10°
2026-04-30 21:00 40.13658 4.27973 9378 ft 295 kts
2026-04-30 21:01 40.17747 4.28951 10515 ft 310 kts
2026-04-30 21:01 40.19948 4.29472 10646 ft 333 kts
2026-04-30 21:01 40.24691 4.30597 11474 ft 353 kts
2026-04-30 21:02 40.27123 4.31179 12108 ft 356 kts
2026-04-30 21:02 40.29576 4.31764 12759 ft 359 kts
2026-04-30 21:02 40.32044 4.32354 13411 ft 362 kts
2026-04-30 21:02 40.33691 4.32748 13833 ft 364 kts
2026-04-30 21:03 40.36193 4.33349 14414 ft 367 kts
2026-04-30 21:03 40.38724 4.33957 14974 ft 370 kts
2026-04-30 21:03 40.41269 4.34567 15552 ft 373 kts
2026-04-30 21:03 40.43833 4.35180 16114 ft 376 kts
2026-04-30 21:04 40.46421 4.35801 16661 ft 379 kts
2026-04-30 21:04 40.49031 4.36426 17209 ft 382 kts
2026-04-30 21:04 40.54310 4.37685 18287 ft 388 kts
2026-04-30 21:05 40.56980 4.38318 18757 ft 391 kts
2026-04-30 21:05 40.59669 4.38957 19213 ft 394 kts
2026-04-30 21:05 40.62373 4.39602 19663 ft 396 kts
2026-04-30 21:05 40.65064 4.40244 20100 ft 399 kts
2026-04-30 21:06 40.67804 4.40900 20548 ft 401 kts
2026-04-30 21:06 40.70564 4.41565 20980 ft 404 kts
2026-04-30 21:06 40.73336 4.42233 21437 ft 406 kts
2026-04-30 21:06 40.76124 4.42903 21869 ft 409 kts
2026-04-30 21:07 40.78932 4.43580 22302 ft 411 kts
2026-04-30 21:07 40.81757 4.44264 22724 ft 414 kts
2026-04-30 21:07 40.84598 4.44951 23148 ft 417 kts
2026-04-30 21:07 40.87461 4.45642 23563 ft 419 kts
2026-04-30 21:08 40.90340 4.46332 23917 ft 422 kts
2026-04-30 21:08 40.93233 4.47027 24262 ft 424 kts
2026-04-30 21:08 40.96142 4.47729 24594 ft 426 kts
2026-04-30 21:08 40.99072 4.48437 24932 ft 428 kts
2026-04-30 21:09 41.02008 4.49152 25264 ft 431 kts
2026-04-30 21:09 41.04961 4.49880 25596 ft 433 kts
2026-04-30 21:09 41.07930 4.50613 25922 ft 435 kts
2026-04-30 21:09 41.10915 4.51344 26247 ft 437 kts
2026-04-30 21:10 41.13911 4.52067 26571 ft 439 kts
2026-04-30 21:10 41.16924 4.52795 26885 ft 441 kts
2026-04-30 21:10 41.19808 4.53494 27185 ft 443 kts
2026-04-30 21:10 41.22849 4.54236 27489 ft 445 kts
2026-04-30 21:11 41.25862 4.54974 27794 ft 447 kts
2026-04-30 21:11 41.28929 4.55726 28113 ft 449 kts
2026-04-30 21:11 41.32007 4.56480 28424 ft 450 kts
2026-04-30 21:11 41.35090 4.57238 28711 ft 452 kts
2026-04-30 21:12 41.38188 4.57996 29032 ft 453 kts
2026-04-30 21:12 41.41297 4.58759 29351 ft 454 kts
2026-04-30 21:12 41.44403 4.59523 29638 ft 455 kts
2026-04-30 21:12 41.47526 4.60291 29928 ft 457 kts
2026-04-30 21:13 41.50660 4.61059 30207 ft 458 kts
2026-04-30 21:13 41.53804 4.61828 30450 ft 460 kts
2026-04-30 21:13 41.56948 4.62601 30769 ft 459 kts
2026-04-30 21:13 41.60087 4.63378 31101 ft 458 kts
2026-04-30 21:14 41.63225 4.64156 31421 ft 458 kts
2026-04-30 21:14 41.66353 4.64930 31738 ft 457 kts
2026-04-30 21:14 41.69482 4.65707 32076 ft 457 kts
2026-04-30 21:14 41.72605 4.66492 32429 ft 456 kts
2026-04-30 21:15 41.75688 4.67578 32747 ft 459 kts 11°
2026-04-30 21:15 41.78752 4.68777 33079 ft 458 kts 11°
2026-04-30 21:15 41.81769 4.69962 33395 ft 458 kts 11°
2026-04-30 21:15 41.84825 4.71161 33708 ft 457 kts 11°
2026-04-30 21:16 41.87879 4.72362 34021 ft 457 kts 11°
2026-04-30 21:16 41.90934 4.73563 34150 ft 457 kts 11°
2026-04-30 21:16 41.97031 4.75965 34170 ft 456 kts 11°
2026-04-30 21:17 42.03116 4.78364 34176 ft 456 kts 11°
2026-04-30 21:17 42.09201 4.80768 34173 ft 456 kts 11°
2026-04-30 21:18 42.15274 4.83177 34182 ft 454 kts 10°
2026-04-30 21:18 42.21336 4.85580 34182 ft 454 kts 10°
2026-04-30 21:19 42.27402 4.87993 34185 ft 454 kts 10°
2026-04-30 21:19 42.33461 4.90393 34182 ft 453 kts 10°
2026-04-30 21:20 42.36510 4.91315 34195 ft 444 kts 359°
2026-04-30 21:20 42.39561 4.91336 34195 ft 437 kts 352°
2026-04-30 21:20 42.45601 4.90991 34192 ft 437 kts 351°
2026-04-30 21:21 42.51681 4.90619 34327 ft 438 kts 351°
2026-04-30 21:21 42.57750 4.90253 34920 ft 435 kts 351°
2026-04-30 21:22 42.60772 4.90071 35179 ft 435 kts 351°
2026-04-30 21:22 42.69829 4.89515 35916 ft 434 kts 351°
2026-04-30 21:23 42.72852 4.89337 36131 ft 434 kts 352°
2026-04-30 21:23 42.81872 4.88807 36207 ft 431 kts 351°
2026-04-30 21:24 42.87869 4.88442 36206 ft 431 kts 351°
2026-04-30 21:24 42.93857 4.88076 36212 ft 431 kts 352°
2026-04-30 21:25 43.02831 4.87527 36213 ft 430 kts 352°
2026-04-30 21:26 43.11769 4.86983 36215 ft 431 kts 352°
2026-04-30 21:27 43.20759 4.86434 36225 ft 431 kts 352°
2026-04-30 21:27 43.26744 4.86061 36215 ft 431 kts 352°
2026-04-30 21:28 43.35740 4.85512 36226 ft 431 kts 353°
2026-04-30 21:29 43.44739 4.84953 36200 ft 431 kts 352°
2026-04-30 21:30 43.59717 4.84031 36228 ft 433 kts 353°
2026-04-30 21:31 43.74776 4.83081 36243 ft 433 kts 353°
2026-04-30 21:32 43.83819 4.82521 36234 ft 434 kts 353°
2026-04-30 21:32 43.89815 4.82151 36231 ft 434 kts 353°
2026-04-30 21:33 43.98862 4.81593 36228 ft 434 kts 354°
2026-04-30 21:34 44.04900 4.81214 36225 ft 434 kts 353°
2026-04-30 21:34 44.13956 4.80629 36231 ft 434 kts 354°
2026-04-30 21:35 44.19998 4.80245 36221 ft 435 kts 354°
2026-04-30 21:35 44.26051 4.79860 36222 ft 435 kts 354°
2026-04-30 21:36 44.32105 4.79474 36240 ft 436 kts 354°
2026-04-30 21:37 44.44192 4.78707 36244 ft 436 kts 354°
2026-04-30 21:37 44.50262 4.78324 36243 ft 436 kts 354°
2026-04-30 21:38 44.56309 4.77813 36247 ft 433 kts 348°
2026-04-30 21:38 44.62266 4.76478 36242 ft 434 kts 348°
2026-04-30 21:39 44.68232 4.75164 36240 ft 434 kts 348°
2026-04-30 21:39 44.74200 4.73851 36239 ft 434 kts 348°
2026-04-30 21:40 44.80175 4.72522 36241 ft 434 kts 348°
2026-04-30 21:40 44.86100 4.71203 36239 ft 434 kts 348°
2026-04-30 21:41 44.92068 4.69875 36235 ft 434 kts 348°
2026-04-30 21:41 44.98041 4.68533 36226 ft 435 kts 348°
2026-04-30 21:42 45.04029 4.67189 36224 ft 435 kts 348°
2026-04-30 21:42 45.10025 4.65842 36224 ft 436 kts 348°
2026-04-30 21:43 45.15005 4.64718 36216 ft 437 kts 349°
2026-04-30 21:43 45.22028 4.63131 36213 ft 438 kts 348°
2026-04-30 21:44 45.28050 4.61755 36217 ft 438 kts 348°
2026-04-30 21:44 45.34077 4.60376 36211 ft 439 kts 349°
2026-04-30 21:45 45.40079 4.58999 36205 ft 440 kts 349°
2026-04-30 21:45 45.46140 4.57609 36207 ft 441 kts 349°
2026-04-30 21:46 45.52210 4.56210 36211 ft 442 kts 349°
2026-04-30 21:46 45.58287 4.54810 36206 ft 443 kts 349°
2026-04-30 21:47 45.64372 4.53403 36204 ft 443 kts 349°
2026-04-30 21:47 45.70467 4.51984 36196 ft 444 kts 350°
2026-04-30 21:48 45.76571 4.50568 36193 ft 445 kts 350°
2026-04-30 21:48 45.82686 4.49152 36196 ft 445 kts 350°
2026-04-30 21:49 45.88797 4.47725 36194 ft 445 kts 350°
2026-04-30 21:49 45.94914 4.46290 36192 ft 446 kts 350°
2026-04-30 21:50 46.01046 4.44851 36191 ft 446 kts 350°
2026-04-30 21:50 46.07141 4.43418 36199 ft 447 kts 350°
2026-04-30 21:51 46.13279 4.41969 36197 ft 447 kts 351°
2026-04-30 21:51 46.19425 4.40525 36193 ft 448 kts 350°
2026-04-30 21:52 46.24587 4.39307 36200 ft 448 kts 350°
2026-04-30 21:52 46.30692 4.37763 36202 ft 448 kts 348°
2026-04-30 21:53 46.36758 4.35689 36202 ft 448 kts 345°
2026-04-30 21:53 46.42799 4.33403 36200 ft 448 kts 346°
2026-04-30 21:54 46.48849 4.31200 36199 ft 448 kts 346°
2026-04-30 21:54 46.54913 4.29080 36197 ft 448 kts 347°
2026-04-30 21:55 46.60974 4.26969 36194 ft 448 kts 347°
2026-04-30 21:55 46.67038 4.24838 36194 ft 448 kts 347°
2026-04-30 21:56 46.73095 4.22693 36193 ft 448 kts 347°
2026-04-30 21:56 46.79153 4.20534 36195 ft 448 kts 347°
2026-04-30 21:57 46.85211 4.18371 36196 ft 448 kts 347°
2026-04-30 21:57 46.91272 4.16193 36197 ft 448 kts 347°
2026-04-30 21:58 46.97339 4.14017 36193 ft 449 kts 347°
2026-04-30 21:58 47.03406 4.11841 36192 ft 449 kts 347°
2026-04-30 21:59 47.09365 4.09092 36192 ft 450 kts 338°
2026-04-30 22:00 47.18050 4.03955 36185 ft 451 kts 339°
2026-04-30 22:00 47.26793 3.98777 36185 ft 452 kts 339°
2026-04-30 22:01 47.32627 3.95316 36184 ft 452 kts 339°
2026-04-30 22:01 47.38469 3.91843 36182 ft 452 kts 339°
2026-04-30 22:02 47.44347 3.88328 36180 ft 453 kts 339°
2026-04-30 22:02 47.50150 3.84852 36181 ft 453 kts 339°
2026-04-30 22:03 47.55993 3.81340 36175 ft 453 kts 339°
2026-04-30 22:03 47.61836 3.77814 36177 ft 453 kts 339°
2026-04-30 22:04 47.67685 3.74299 36182 ft 454 kts 339°
2026-04-30 22:05 47.76457 3.69007 36178 ft 454 kts 339°
2026-04-30 22:05 47.82303 3.65458 36180 ft 454 kts 339°
2026-04-30 22:06 47.88150 3.61907 36184 ft 454 kts 339°
2026-04-30 22:06 47.96924 3.56563 36180 ft 454 kts 339°
2026-04-30 22:07 48.02734 3.53011 36179 ft 454 kts 339°
2026-04-30 22:07 48.08580 3.49412 36182 ft 454 kts 339°
2026-04-30 22:08 48.14429 3.45792 36187 ft 455 kts 339°
2026-04-30 22:08 48.20279 3.42169 36190 ft 455 kts 339°
2026-04-30 22:09 48.26129 3.38549 36194 ft 455 kts 339°
2026-04-30 22:09 48.31983 3.34915 36193 ft 455 kts 339°
2026-04-30 22:10 48.37842 3.31262 36205 ft 456 kts 338°
2026-04-30 22:10 48.43700 3.27590 36203 ft 456 kts 338°
2026-04-30 22:11 48.52467 3.21987 36209 ft 457 kts 338°
2026-04-30 22:12 48.58316 3.18235 36210 ft 457 kts 338°
2026-04-30 22:12 48.64173 3.14474 36218 ft 457 kts 338°
2026-04-30 22:13 48.70028 3.10712 36224 ft 457 kts 338°
2026-04-30 22:13 48.75879 3.06944 36224 ft 457 kts 338°
2026-04-30 22:14 48.81733 3.03158 36236 ft 457 kts 338°
2026-04-30 22:14 48.87383 2.98865 36240 ft 458 kts 330°
2026-04-30 22:15 48.92903 2.94028 36232 ft 458 kts 330°
2026-04-30 22:15 48.98433 2.89182 36231 ft 458 kts 330°
2026-04-30 22:16 49.03937 2.84348 36232 ft 458 kts 330°
2026-04-30 22:17 49.14987 2.74616 36232 ft 459 kts 331°
2026-04-30 22:17 49.23274 2.67270 36244 ft 459 kts 331°
2026-04-30 22:18 49.31565 2.59914 36243 ft 459 kts 330°
2026-04-30 22:19 49.39765 2.52604 36239 ft 459 kts 330°
2026-04-30 22:20 49.48035 2.45177 36230 ft 459 kts 330°
2026-04-30 22:20 49.53796 2.41058 36220 ft 456 kts 345°
2026-04-30 22:20 49.56849 2.39691 36222 ft 456 kts 345°
2026-04-30 22:21 49.62954 2.36933 36224 ft 457 kts 345°
2026-04-30 22:21 49.69053 2.34167 36227 ft 457 kts 345°
2026-04-30 22:22 49.75153 2.31387 36231 ft 457 kts 345°
2026-04-30 22:22 49.81260 2.28588 36244 ft 457 kts 345°
2026-04-30 22:23 49.87313 2.25812 36249 ft 457 kts 344°
2026-04-30 22:23 49.93413 2.23009 36243 ft 457 kts 344°
2026-04-30 22:24 49.99513 2.20182 36244 ft 457 kts 344°
2026-04-30 22:24 50.05615 2.17355 36235 ft 458 kts 344°
2026-04-30 22:25 50.11720 2.14515 36233 ft 458 kts 344°
2026-04-30 22:25 50.17829 2.11664 36233 ft 457 kts 344°
2026-04-30 22:26 50.26932 2.07429 36233 ft 457 kts 344°
2026-04-30 22:27 50.33065 2.04567 36238 ft 457 kts 343°
2026-04-30 22:27 50.41220 1.97166 36227 ft 458 kts 319°
2026-04-30 22:28 50.48428 1.87326 36215 ft 458 kts 319°
2026-04-30 22:29 50.58054 1.74157 36217 ft 459 kts 318°
2026-04-30 22:31 50.74908 1.50890 36236 ft 460 kts 318°
2026-04-30 22:32 50.86922 1.34149 36241 ft 461 kts 318°
2026-04-30 22:33 50.98890 1.17363 36224 ft 461 kts 317°
2026-04-30 22:35 51.10764 1.00266 36222 ft 460 kts 315°
2026-04-30 22:36 51.22131 0.82347 36224 ft 459 kts 314°
2026-04-30 22:37 51.31280 0.68093 36212 ft 462 kts 314°
2026-04-30 22:37 51.35925 0.60789 36243 ft 474 kts 314°
2026-04-30 22:38 51.40672 0.53288 36240 ft 484 kts 314°
2026-04-30 22:39 51.47120 0.43060 36237 ft 488 kts 314°
2026-04-30 22:40 51.61516 0.20121 36219 ft 485 kts 314°
2026-04-30 22:41 51.73371 0.00834 35602 ft 482 kts 313°
2026-04-30 22:42 51.82753 -0.14716 34614 ft 486 kts 313°
2026-04-30 22:43 51.87432 -0.22474 34130 ft 488 kts 313°
2026-04-30 22:43 51.92174 -0.30353 33582 ft 490 kts 312°
2026-04-30 22:44 51.96939 -0.38300 33039 ft 492 kts 312°
2026-04-30 22:45 52.06491 -0.54327 31988 ft 496 kts 312°
2026-04-30 22:45 52.11288 -0.62415 31476 ft 497 kts 312°
2026-04-30 22:46 52.16097 -0.70551 30824 ft 500 kts 312°
2026-04-30 22:47 52.26073 -0.86518 28345 ft 508 kts 325°
2026-04-30 22:47 52.32124 -0.92583 27198 ft 512 kts 328°
2026-04-30 22:48 52.38220 -0.98658 26073 ft 512 kts 328°
2026-04-30 22:49 52.47241 -1.07685 24426 ft 505 kts 327°
2026-04-30 22:49 52.56136 -1.16635 22738 ft 494 kts 327°
2026-04-30 22:50 52.67394 -1.28017 20594 ft 462 kts 327°
2026-04-30 22:51 52.72814 -1.33519 19508 ft 454 kts 327°
2026-04-30 22:51 52.78136 -1.38945 18491 ft 445 kts 327°
2026-04-30 22:52 52.80754 -1.41618 17881 ft 440 kts 327°
2026-04-30 22:52 52.85914 -1.46894 16780 ft 433 kts 327°
2026-04-30 22:53 52.90993 -1.52119 15698 ft 426 kts 327°
2026-04-30 22:53 52.95987 -1.57270 14785 ft 414 kts 327°
2026-04-30 22:53 52.98377 -1.59732 14615 ft 393 kts 327°
2026-04-30 22:54 53.02860 -1.64358 12886 ft 370 kts 326°
2026-04-30 22:55 53.08198 -1.72438 11817 ft 337 kts 308°
2026-04-30 22:55 53.11101 -1.78050 11477 ft 318 kts 308°
2026-04-30 22:56 53.13971 -1.83603 10812 ft 312 kts 308°
2026-04-30 22:56 53.18155 -1.91744 9700 ft 308 kts 308°
2026-04-30 22:57 53.20934 -1.97180 8820 ft 308 kts 308°
2026-04-30 22:57 53.23352 -2.02912 8201 ft 291 kts 282°
2026-04-30 22:58 53.23085 -2.09147 7732 ft 267 kts 251°
2026-04-30 22:59 53.21580 -2.18032 6638 ft 264 kts 250°
2026-04-30 22:59 53.20060 -2.26835 5497 ft 262 kts 250°